• MPC Preparation (Info)

  • MPEC 2016-O200: 2014 GE54

    The following Minor Planet Electronic Circular may be linked-to from your own Web pages, but must not otherwise be redistributed electronically.

    A form allowing access to any MPEC is at the bottom of this page.


    Read MPEC 2016-O199 Read MPEC 2016-O201


    M.P.E.C. 2016-O200                               Issued 2016 July 17, 16:16 UT
    
         The Minor Planet Electronic Circulars contain information on unusual
             minor planets and routine data on comets.  They are published
        on behalf of Division F of the International Astronomical Union by the
              Minor Planet Center, Smithsonian Astrophysical Observatory,
                              Cambridge, MA 02138, U.S.A.
    
                 Prepared using the Tamkin Foundation Computer Network
    
                                  MPC@CFA.HARVARD.EDU
                URL https://www.minorplanetcenter.net/    ISSN 1523-6714
    
                                       2014 GE54
    
    Observations:
         K14G54E  C2012 03 29.46138 13 53 38.951+05 54 20.49         22.2 wLEO200F51
         K14G54E  C2012 03 29.47573 13 53 38.887+05 54 21.05         22.2 wLEO200F51
         K14G54E  C2012 03 29.49014 13 53 38.820+05 54 21.58         22.3 wLEO200F51
         K14G54E  C2012 03 29.50467 13 53 38.760+05 54 22.29         22.3 wLEO200F51
         K14G54E* C2014 04 05.42264 14 06 29.435+05 01 17.75         22.1 wLEO200F51
         K14G54E  C2014 04 05.43486 14 06 29.366+05 01 17.98         22.4 wLEO200F51
         K14G54E  C2014 04 05.44715 14 06 29.308+05 01 18.52         22.3 wLEO200F51
         K14G54E  C2014 04 05.45940 14 06 29.257+05 01 19.02         22.6 wLEO200F51
         K14G54E  C2014 05 25.38171 14 02 35.214+05 19 55.27         22.2 wLEO200F51
         K14G54E  C2014 05 25.39475 14 02 35.163+05 19 55.47         22.4 wLEO200F51
         K14G54E  C2014 05 25.40777 14 02 35.107+05 19 55.43         22.5 wLEO200F51
         K14G54E  C2014 05 25.42088 14 02 35.057+05 19 55.70         22.4 wLEO200F51
         K14G54E  C2014 06 17.30829 14 01 19.812+05 19 36.39         22.3 wLEO200F51
         K14G54E  C2014 06 17.31980 14 01 19.767+05 19 36.61         22.4 wLEO200F51
         K14G54E  C2014 06 17.33137 14 01 19.749+05 19 36.42         22.4 wLEO200F51
         K14G54E  C2014 07 01.27784 14 00 53.904+05 16 26.29         22.5 wLEO200F51
         K14G54E  C2014 07 01.28932 14 00 53.882+05 16 26.27         22.3 wLEO200F51
         K14G54E  C2014 07 01.30076 14 00 53.873+05 16 25.87         22.5 wLEO200F51
         K14G54E  C2014 07 01.31221 14 00 53.861+05 16 25.68         22.4 wLEO200F51
         K14G54E  C2015 04 13.42639 14 12 27.416+04 37 05.07         21.8 wLEO200F51
         K14G54E  C2015 04 13.44072 14 12 27.352+04 37 05.69         22.2 wLEO200F51
         K14G54E  C2015 04 13.45510 14 12 27.262+04 37 06.45         22.1 wLEO200F51
         K14G54E  C2015 04 13.46980 14 12 27.209+04 37 06.59         22.0 wLEO200F51
    
    Observer details:
    F51 Pan-STARRS 1, Haleakala.  Observers B. Gibson, T. Goggia, N. Primak,
        A. Schultz, M. Willman.  Measurers K. Chambers, S. Chastel, Y.-T. Chen,
        L. Denneau, H. Flewelling, M. Holman, M. Huber, R. Jedicke, M. Lackner,
        E. Lilly, H.-W. Lin, E. Magnier, M. Micheli, M. Payne, P. Veres,
        R. Wainscoat, C. Waters, R. Weryk.  1.8-m Ritchey-Chretien + CCD.
    
    Orbital elements:
    2014 GE54
    Epoch 2016 July 31.0 TT = JDT 2457600.5                 MPC
    M  29.82529              (2000.0)            P               Q
    n   0.00295215     Peri.   27.77749     -0.93485275     -0.28597921
    a  48.1256613      Node   133.93539     +0.24666975     -0.94939494
    e   0.2621887      Incl.   16.98768     +0.25535145     -0.12986585
    P 334              H    6.3           G   0.15           U   3
    Residuals in seconds of arc
    120329 F51  0.0   0.1-    140525 F51  0.1-  0.1-    140701 F51  0.1-  0.1+
    120329 F51  0.0   0.0     140525 F51  0.0   0.0     140701 F51  0.0   0.0
    120329 F51  0.0   0.0     140525 F51  0.1-  0.2-    140701 F51  0.0   0.0
    120329 F51  0.1+  0.2+    140525 F51  0.0   0.0     150413 F51  0.0   0.2-
    140405 F51  0.1+  0.1+    140617 F51  0.1+  0.2-    150413 F51  0.1+  0.0
    140405 F51  0.0   0.1-    140617 F51  0.1-  0.1+    150413 F51  0.2-  0.3+
    140405 F51  0.0   0.1+    140617 F51  0.1+  0.0     150413 F51  0.1+  0.0
    140405 F51  0.1+  0.1+    140701 F51  0.0   0.0
    
    Ephemeris:
    2014 GE54                a,e,i = 48.13, 0.26, 17                 q = 35.508
    Date    TT    R. A. (2000) Decl.     Delta      r     Elong.  Phase     V
    2016 06 17    14 14 18.1 +04 23 37  37.7954 38.3455   122.1     1.3    22.3
    ...
    2016 07 02    14 13 46.8 +04 20 29  38.0185 38.3533   108.5     1.4    22.3
    ...
    2016 07 10    14 13 38.2 +04 17 50  38.1469 38.3574   101.2     1.5    22.3
    ...
    2016 07 16    14 13 35.7 +04 15 26  38.2456 38.3605    95.7     1.5    22.3
    2016 07 17    14 13 35.6 +04 15 00  38.2622 38.3610    94.8     1.5    22.3
    2016 07 18    14 13 35.6 +04 14 34  38.2788 38.3615    93.9     1.5    22.3
    ...
    2016 07 24    14 13 37.6 +04 11 43  38.3786 38.3646    88.5     1.5    22.3
    ...
    2016 08 01    14 13 45.7 +04 07 29  38.5113 38.3688    81.2     1.5    22.3
    ...
    2016 08 16    14 14 17.3 +03 58 20  38.7508 38.3765    67.6     1.4    22.4
    
    A. U. Tomatic                (C) Copyright 2016 MPC           M.P.E.C. 2016-O200
    

    Read MPEC 2016-O199 Read MPEC 2016-O201


    MPEC number:

    Enter an MPEC number in one of the following forms:

    • 1997-B01 (the full form)
    • J97B01 (the packed version of the full form)
    • B01 (the abbreviated form)